This demonstration page uses our WeatherBlox Daily Observations layout. Learn more.

Hourly Observations for February 22, 2021

Temp ( °F °C ) Dew Point ( °F °C ) Humidity (%) Winds ( mph kmh ) Pressure ( in mb ) Visibility ( mi km ) Precip ( " mm )
12:15 am 00:15 Clear 32 0 21 -6 64 64 S 10 17 30.42 1030 10 16.0934 0 0
12:35 am 00:35 Clear 32 0 21 -6 64 64 S 9 15 30.41 1030 10 16.0934 0 0
12:55 am 00:55 Clear 32 0 21 -6 64 64 S 8 13 30.4 1030 10 16.0934 0 0
1:15 am 01:15 Clear 32 0 21 -6 64 64 SSE 7 11 30.4 1030 10 16.0934 0 0
1:35 am 01:35 Clear 32 0 21 -6 64 64 S 8 13 30.39 1029 10 16.0934 0 0
1:55 am 01:55 Clear 30 -1 21 -6 69 69 S 7 11 30.38 1029 10 16.0934 0 0
2:15 am 02:15 Clear 30 -1 21 -6 69 69 S 6 9 30.37 1029 10 16.0934 0 0
2:35 am 02:35 Clear 30 -1 21 -6 69 69 S 5 7 30.35 1028 10 16.0934 0 0
2:55 am 02:55 Clear 30 -1 21 -6 69 69 S 7 11 30.34 1028 10 16.0934 0 0
3:15 am 03:15 Clear 30 -1 21 -6 69 69 SSW 3 6 30.33 1027 10 16.0934 0 0
3:35 am 03:35 Clear 30 -1 23 -5 75 75 S 8 13 30.31 1027 10 16.0934 0 0
3:55 am 03:55 Clear 30 -1 23 -5 75 75 S 8 13 30.29 1026 10 16.0934 0 0
4:15 am 04:15 Clear 30 -1 23 -5 75 75 S 10 17 30.28 1026 10 16.0934 0 0
4:35 am 04:35 Clear 30 -1 23 -5 75 75 S 9 15 30.27 1025 10 16.0934 0 0
4:55 am 04:55 Clear 30 -1 23 -5 75 75 S 10 17 30.25 1025 10 16.0934 0 0
5:15 am 05:15 Clear 30 -1 23 -5 75 75 S 12 19 30.24 1024 10 16.0934 0 0
5:35 am 05:35 Clear 30 -1 23 -5 75 75 S 10 17 30.23 1024 10 16.0934 0 0
5:55 am 05:55 Clear 32 0 23 -5 69 69 S 9 15 30.21 1023 10 16.0934 0 0
6:15 am 06:15 Clear 32 0 23 -5 69 69 S 10 17 30.2 1023 10 16.0934 0 0
6:35 am 06:35 Clear 32 0 23 -5 69 69 S 10 17 30.18 1022 10 16.0934 0 0
6:55 am 06:55 Partly Cloudy 32 0 25 -4 75 75 SSW 9 15 30.18 1022 10 16.0934 0 0
7:15 am 07:15 Mostly Cloudy 32 0 25 -4 75 75 SSW 10 17 30.19 1022 10 16.0934 0 0
7:35 am 07:35 Cloudy 32 0 25 -4 75 75 S 10 17 30.16 1021 10 16.0934 0 0
7:55 am 07:55 Cloudy with Light Snow 32 0 27 -3 80 80 S 10 17 30.15 1021 4 6.43736 0 0
8:15 am 08:15 Cloudy with Light Snow 32 0 27 -3 80 80 S 10 17 30.14 1021 4 6.43736 0 0
8:35 am 08:35 Cloudy with Light Snow 32 0 28 -2 87 87 S 10 17 30.14 1021 4 6.43736 0 0
8:55 am 08:55 Cloudy with Light Snow 32 0 28 -2 87 87 S 12 19 30.12 1020 1.5 2.41401 0 0
9:15 am 09:15 Cloudy with Light Snow 30 -1 30 -1 100 100 S 13 20 30.1 1019 4 6.43736 0 0
9:35 am 09:35 Cloudy with Light Snow 32 0 30 -1 93 93 S 10 17 30.09 1019 3 4.82802 0 0
9:55 am 09:55 Cloudy with Light Snow 32 0 30 -1 93 93 S 10 17 30.07 1018 3 4.82802 0 0
10:15 am 10:15 Cloudy with Light Snow 32 0 32 0 100 100 S 10 17 30.06 1018 2.5 4.02335 0 0
10:35 am 10:35 Cloudy with Light Wintry Mix 32 0 32 0 100 100 S 10 17 30.04 1017 3 4.82802 0 0
10:55 am 10:55 Cloudy with Light Wintry Mix 32 0 32 0 100 100 S 9 15 30.03 1017 2 3.21868 0 0
11:15 am 11:15 Cloudy with Light Wintry Mix 32 0 32 0 100 100 S 13 20 30.02 1017 2 3.21868 0 0
11:35 am 11:35 Cloudy with Light Wintry Mix 32 0 32 0 100 100 S 12 19 29.99 1016 1.75 2.816345 0.11 2.794
11:55 am 11:55 Cloudy with Light Wintry Mix 32 0 32 0 100 100 S 12 19 29.98 1015 4 6.43736 0.15 3.81
12:15 pm 12:15 Cloudy 32 0 32 0 100 100 SSW 9 15 29.97 1015 10 16.0934 0.02 0.508
12:35 pm 12:35 Cloudy with Light Wintry Mix 32 0 32 0 100 100 S 9 15 29.95 1014 7 11.26538 0.03 0.762
12:55 pm 12:55 Cloudy 32 0 32 0 100 100 S 10 17 29.91 1013 10 16.0934 0.04 1.016
1:15 pm 13:15 Cloudy 32 0 32 0 100 100 S 13 20 29.85 1011 10 16.0934 0 0
1:35 pm 13:35 Cloudy 32 0 32 0 100 100 SSW 3 6 29.84 1011 10 16.0934 0.01 0.254
1:55 pm 13:55 Cloudy 32 0 32 0 100 100 SW 3 6 29.83 1010 10 16.0934 0.02 0.508
2:15 pm 14:15 Cloudy 32 0 32 0 100 100 SSW 6 9 29.81 1010 10 16.0934 0 0
2:35 pm 14:35 Cloudy 32 0 32 0 100 100 S 7 11 29.79 1009 10 16.0934 0.01 0.254
2:55 pm 14:55 Cloudy 32 0 32 0 100 100 SSW 6 9 29.81 1010 10 16.0934 0.03 0.762
3:15 pm 15:15 Cloudy 32 0 32 0 100 100 SSW 8 13 29.81 1010 10 16.0934 0 0
3:35 pm 15:35 Cloudy 34 1 34 1 100 100 S 7 11 29.81 1009 10 16.0934 0.02 0.508
3:55 pm 15:55 Cloudy 34 1 34 1 100 100 SSW 8 13 29.81 1009 10 16.0934 0.04 1.016
4:15 pm 16:15 Cloudy 34 1 34 1 100 100 SW 5 7 29.8 1009 10 16.0934 0.01 0.254
4:35 pm 16:35 Cloudy 34 1 34 1 100 100 W 5 7 29.82 1010 10 16.0934 0.02 0.508
4:55 pm 16:55 Cloudy 34 1 34 1 100 100 WSW 5 7 29.82 1010 10 16.0934 0.04 1.016
5:15 pm 17:15 Cloudy 34 1 34 1 100 100 SW 5 7 29.81 1009 10 16.0934 0 0
5:35 pm 17:35 Cloudy 34 1 34 1 100 100 Calm 29.81 1009 10 16.0934 0.01 0.254
5:55 pm 17:55 Cloudy 34 1 34 1 100 100 Calm 29.82 1010 10 16.0934 0.02 0.508
6:15 pm 18:15 Cloudy 34 1 34 1 100 100 WSW 3 6 29.83 1010 10 16.0934 0 0
6:35 pm 18:35 Mostly Cloudy 34 1 34 1 100 100 SSW 3 6 29.84 1010 10 16.0934 0 0
6:55 pm 18:55 Clear 32 0 32 0 100 100 S 5 7 29.84 1011 10 16.0934 0 0
7:15 pm 19:15 Clear 32 0 32 0 100 100 SSW 3 6 29.85 1011 10 16.0934 0 0
7:35 pm 19:35 Partly Cloudy 32 0 32 0 100 100 S 5 7 29.86 1011 10 16.0934 0 0
7:55 pm 19:55 Mostly Cloudy 32 0 32 0 100 100 SW 3 6 29.86 1011 10 16.0934 0 0
8:15 pm 20:15 Cloudy 32 0 32 0 100 100 SW 3 6 29.87 1012 7 11.26538 0 0
8:35 pm 20:35 Mostly Cloudy 32 0 32 0 100 100 W 12 19 29.88 1012 10 16.0934 0 0
8:55 pm 20:55 Cloudy 37 3 32 0 81 81 WNW 16 26 29.87 1011 10 16.0934 0 0
9:15 pm 21:15 Mostly Cloudy 39 4 30 -1 70 70 WNW 18 30 29.88 1012 10 16.0934 0.01 0.254
9:35 pm 21:35 Partly Cloudy 41 5 30 -1 66 66 NW 23 37 29.87 1012 10 16.0934 0.03 0.762
9:55 pm 21:55 Clear 39 4 30 -1 70 70 NW 18 30 29.88 1012 10 16.0934 0.04 1.016
10:15 pm 22:15 Partly Cloudy 39 4 30 -1 70 70 W 6 9 29.9 1012 10 16.0934 0.01 0.254
10:35 pm 22:35 Mostly Cloudy 39 4 30 -1 70 70 WNW 9 15 29.9 1012 10 16.0934 0.01 0.254
10:55 pm 22:55 Partly Cloudy 39 4 30 -1 70 70 NW 13 20 29.89 1012 10 16.0934 0.02 0.508
11:15 pm 23:15 Clear 41 5 30 -1 66 66 WNW 12 19 29.88 1012 10 16.0934 0.01 0.254
11:35 pm 23:35 Clear 39 4 30 -1 70 70 WNW 10 17 29.89 1012 10 16.0934 0.01 0.254
11:55 pm 23:55 Clear 37 3 30 -1 75 75 WNW 10 17 29.89 1012 10 16.0934 0.01 0.254

Powered by AerisWeather